[[{"header":{"parameterUnit":"m.s-1","parameterCategory":2,"la1":30.2992,"la2":30.254,"lo1":-89.0895,"lo2":-89.0443,"dy":0.0025,"dx":0.0025,"nx":19,"ny":19,"refTime":"2026-04-22T09:00:00:Z","depth":"0","parameterNumber":2,"parameterNumberName":"U-component_of_CURRENTS"},"data":[0,0,0,-0.1381,-0.1383,-0.1464,-0.1465,-0.1538,-0.1538,0,0,0,0,0,0,0,0,0,0,0,-0.135,-0.1351,-0.1381,-0.1383,-0.1464,-0.1465,-0.1538,-0.1538,0,0,0,0,0,0,0,0,0,0,0,-0.135,-0.1351,-0.1351,-0.1383,-0.1464,-0.1465,-0.1538,-0.1484,0,0,0,0,0,0,0,0,0,0,-0.1409,-0.1376,-0.1351,-0.1351,-0.1384,-0.1464,-0.1465,-0.1482,-0.1487,-0.1492,0,-0.1505,0,-0.1525,-0.1543,-0.1543,0,0,0,-0.1383,-0.1371,-0.1403,-0.1351,-0.1385,-0.1464,-0.1428,-0.1485,-0.1491,-0.1499,-0.1507,-0.151,-0.1526,-0.1543,-0.1543,-0.1629,-0.1629,0,0,-0.1379,-0.1356,-0.1398,-0.1407,-0.1407,-0.1425,-0.143,-0.1489,-0.1489,-0.1507,-0.1512,-0.1527,-0.1543,-0.1544,-0.1628,-0.1629,0,0,0,-0.1366,-0.1353,-0.1383,-0.1403,-0.1421,-0.1428,-0.1433,-0.1487,-0.15,-0.1513,-0.1528,-0.1544,-0.1544,-0.1628,-0.1628,-0.1652,0,0,0,-0.1363,-0.1345,-0.1381,-0.1367,-0.142,-0.1457,-0.1429,-0.1496,-0.1503,-0.1527,-0.1544,-0.1545,-0.1627,-0.1628,-0.165,-0.1655,0,0,0,-0.1346,-0.1343,-0.1355,-0.1366,-0.1403,-0.1457,-0.1473,-0.1498,-0.1512,-0.1543,-0.1545,-0.1627,-0.1628,-0.1648,-0.1652,-0.171,0,0,0,-0.1317,-0.1336,-0.1355,-0.1391,-0.1402,-0.1485,-0.1473,-0.1527,-0.1557,-0.1544,-0.1627,-0.1628,-0.1648,-0.1651,-0.1708,-0.1819,-0.1838,0,0,-0.1327,-0.1337,-0.1363,-0.1383,-0.1464,-0.1474,-0.1552,-0.1577,-0.1573,-0.1604,-0.1607,-0.165,-0.1652,-0.171,-0.1884,-0.1901,0,0,0,-0.1359,-0.1374,-0.1404,-0.1455,-0.1517,-0.1573,-0.1605,-0.161,-0.1635,-0.1596,-0.1667,-0.1667,-0.1703,-0.1766,-0.178,-0.1663,-0.1634,-0.1633,-0.1633,-0.1328,-0.1384,-0.1445,-0.152,-0.1573,-0.1645,-0.1679,-0.1691,-0.1683,-0.1692,-0.1699,-0.1773,-0.1841,-0.1852,-0.173,-0.1716,-0.1716,-0.1716,-0.1716,-0.1357,-0.1395,-0.1475,-0.1547,-0.1624,-0.1684,-0.1744,-0.1741,-0.1777,-0.1738,-0.1772,-0.1802,-0.1869,-0.1733,-0.1718,-0.1717,-0.1717,-0.1717,-0.1717,-0.1334,-0.1362,-0.1417,-0.1526,-0.1613,-0.1695,-0.1748,-0.1768,-0.1799,-0.1824,-0.1917,-0.1918,-0.179,-0.185,-0.1851,-0.1851,-0.1851,-0.1852,-0.1852,-0.1279,-0.1343,-0.1391,-0.1503,-0.1559,-0.1632,-0.1734,-0.1799,-0.1926,-0.1958,-0.196,-0.1813,-0.1814,-0.1799,-0.1856,-0.1855,-0.1855,-0.1854,-0.1854,-0.1238,-0.1257,-0.1329,-0.1383,-0.1508,-0.1547,-0.1681,-0.1907,-0.2008,-0.2119,-0.1993,-0.2047,-0.2056,-0.2046,-0.2037,-0.2152,-0.2152,-0.2152,-0.2152,-0.1182,-0.1208,-0.1275,-0.134,-0.1414,-0.1502,-0.1627,-0.185,-0.2037,-0.206,-0.2045,-0.2009,-0.2002,-0.2003,-0.1994,-0.1981,-0.2079,-0.2079,-0.2078,-0.1147,-0.1181,-0.1201,-0.1284,-0.1369,-0.143,-0.1534,-0.1708,-0.1961,-0.2055,-0.1855,-0.1858,-0.1779,-0.1778,-0.1756,-0.1753,-0.1724,0,0]},{"header":{"parameterUnit":"m.s-1","parameterCategory":2,"la1":30.2992,"la2":30.254,"lo1":-89.0895,"lo2":-89.0443,"dy":0.0025,"dx":0.0025,"nx":19,"ny":19,"refTime":"2026-04-22T09:00:00:Z","depth":"0","parameterNumber":3,"parameterNumberName":"V-component_of_CURRENTS"},"data":[0,0,0,-0.0299,-0.0301,-0.0354,-0.0355,-0.0325,-0.0324,0,0,0,0,0,0,0,0,0,0,0,-0.0277,-0.0278,-0.0299,-0.0301,-0.0354,-0.0355,-0.0325,-0.0324,0,0,0,0,0,0,0,0,0,0,0,-0.0277,-0.0278,-0.0279,-0.0301,-0.0354,-0.0355,-0.0325,-0.0307,0,0,0,0,0,0,0,0,0,0,-0.0266,-0.026,-0.0278,-0.0279,-0.0302,-0.0354,-0.0355,-0.0307,-0.0308,-0.0275,0,-0.0291,0,-0.031,-0.0321,-0.0321,0,0,0,-0.0292,-0.0259,-0.0279,-0.0279,-0.0302,-0.0354,-0.0328,-0.0308,-0.0309,-0.0276,-0.0291,-0.0291,-0.031,-0.032,-0.032,-0.0302,-0.0303,0,0,-0.0289,-0.0278,-0.0279,-0.028,-0.0324,-0.0326,-0.033,-0.031,-0.0308,-0.0291,-0.0291,-0.0309,-0.032,-0.032,-0.0302,-0.0303,0,0,0,-0.0287,-0.0275,-0.0298,-0.028,-0.03,-0.0328,-0.0332,-0.0309,-0.0319,-0.0291,-0.0309,-0.032,-0.0319,-0.0302,-0.0302,-0.0336,0,0,0,-0.0285,-0.0275,-0.0296,-0.0288,-0.0301,-0.0318,-0.0331,-0.032,-0.0319,-0.0309,-0.032,-0.0319,-0.0302,-0.0302,-0.0334,-0.0374,0,0,0,-0.0274,-0.0273,-0.0284,-0.0288,-0.0317,-0.032,-0.0328,-0.0321,-0.0329,-0.0321,-0.0319,-0.0302,-0.0302,-0.0333,-0.0371,-0.0394,0,0,0,-0.0253,-0.0294,-0.0284,-0.0337,-0.0316,-0.0362,-0.0329,-0.035,-0.0348,-0.032,-0.0302,-0.0302,-0.0333,-0.0369,-0.0392,-0.0402,-0.0411,0,0,-0.03,-0.0299,-0.0335,-0.0327,-0.0391,-0.0354,-0.0386,-0.0365,-0.0339,-0.0299,-0.03,-0.0335,-0.0371,-0.0393,-0.0428,-0.0437,0,0,0,-0.0347,-0.0372,-0.039,-0.0423,-0.0437,-0.0432,-0.0407,-0.0384,-0.0358,-0.0343,-0.0335,-0.0357,-0.037,-0.0372,-0.0379,-0.0071,-0.0304,-0.0304,-0.0304,-0.038,-0.0408,-0.0466,-0.0491,-0.05,-0.0479,-0.047,-0.0428,-0.0386,-0.0377,-0.0383,-0.0425,-0.0427,-0.0433,-0.0114,-0.0368,-0.0368,-0.0368,-0.0368,-0.0467,-0.0509,-0.0519,-0.0584,-0.056,-0.0561,-0.0512,-0.0479,-0.0453,-0.0413,-0.0422,-0.0406,-0.0442,-0.01,-0.0371,-0.037,-0.037,-0.037,-0.037,-0.0498,-0.0524,-0.0562,-0.063,-0.0642,-0.0612,-0.0639,-0.0575,-0.0507,-0.0513,-0.0503,-0.0502,-0.0202,-0.0508,-0.0508,-0.0508,-0.0509,-0.0509,-0.0509,-0.0513,-0.0557,-0.0626,-0.0681,-0.0711,-0.0735,-0.0712,-0.0711,-0.0638,-0.0562,-0.0561,-0.0176,-0.0468,-0.0465,-0.0513,-0.0512,-0.0512,-0.0512,-0.0511,-0.0575,-0.0588,-0.0695,-0.0748,-0.084,-0.0934,-0.0899,-0.0889,-0.083,-0.0803,-0.0229,-0.0579,-0.0574,-0.0567,-0.0566,-0.0638,-0.0638,-0.0638,-0.0638,-0.0601,-0.0621,-0.0774,-0.0877,-0.0978,-0.1032,-0.1158,-0.1029,-0.0568,-0.0224,-0.0103,-0.0009,-0.0018,0.0027,0.002,0.0037,0.0119,0.0121,0.0123,-0.0647,-0.069,-0.0807,-0.0924,-0.105,-0.117,-0.129,-0.1041,-0.0198,0.019,0.0336,0.0304,0.0479,0.044,0.0539,0.0505,0.054,0,0]}],[{"header":{"parameterUnit":"m.s-1","parameterCategory":2,"la1":30.2992,"la2":30.254,"lo1":-89.0895,"lo2":-89.0443,"dy":0.0025,"dx":0.0025,"nx":19,"ny":19,"refTime":"2026-04-22T09:00:00:Z","depth":"2","parameterNumber":2,"parameterNumberName":"U-component_of_CURRENTS"},"data":[0,0,0,-0.1088,-0.1086,-0.1007,-0.1006,-0.0994,-0.0994,0,0,0,0,0,0,0,0,0,0,0,-0.1134,-0.1135,-0.1088,-0.1086,-0.1007,-0.1006,-0.0994,-0.0994,0,0,0,0,0,0,0,0,0,0,0,-0.1134,-0.1135,-0.1135,-0.1086,-0.1007,-0.1006,-0.0994,-0.103,0,0,0,0,0,0,0,0,0,0,-0.1095,-0.1103,-0.1134,-0.1135,-0.1085,-0.1007,-0.1006,-0.103,-0.1028,-0.1058,0,-0.1064,0,-0.1026,-0.0996,-0.0996,0,0,0,-0.1078,-0.1105,-0.1108,-0.1135,-0.1085,-0.1007,-0.104,-0.1028,-0.1025,-0.1055,-0.1063,-0.1061,-0.1026,-0.0996,-0.0997,-0.1035,-0.1035,0,0,-0.1082,-0.1093,-0.111,-0.1107,-0.109,-0.1043,-0.1038,-0.1025,-0.1021,-0.1063,-0.106,-0.1026,-0.0997,-0.0997,-0.1035,-0.1035,0,0,0,-0.11,-0.1096,-0.1096,-0.1109,-0.1086,-0.1041,-0.1035,-0.1021,-0.1029,-0.1059,-0.1026,-0.0997,-0.0997,-0.1034,-0.1035,-0.1157,0,0,0,-0.1103,-0.1107,-0.1099,-0.11,-0.1086,-0.1033,-0.1031,-0.103,-0.1026,-0.1026,-0.0997,-0.0997,-0.1034,-0.1034,-0.1154,-0.1168,0,0,0,-0.1133,-0.1108,-0.1113,-0.1102,-0.1071,-0.1032,-0.1036,-0.1028,-0.1007,-0.0996,-0.0997,-0.1034,-0.1034,-0.115,-0.1163,-0.1295,0,0,0,-0.1127,-0.1132,-0.1114,-0.1093,-0.1072,-0.1066,-0.1035,-0.1021,-0.1017,-0.0997,-0.1034,-0.1035,-0.1149,-0.116,-0.1291,-0.1392,-0.1422,0,0,-0.1129,-0.1132,-0.1117,-0.1099,-0.1092,-0.1075,-0.1088,-0.1068,-0.1033,-0.1043,-0.1043,-0.1155,-0.1162,-0.1294,-0.1419,-0.1449,0,0,0,-0.1113,-0.1118,-0.1103,-0.1094,-0.1088,-0.1118,-0.1101,-0.1107,-0.1118,-0.1032,-0.113,-0.1129,-0.121,-0.126,-0.1283,-0.1037,-0.1037,-0.1037,-0.1037,-0.1113,-0.1113,-0.1118,-0.1137,-0.1147,-0.116,-0.1191,-0.1202,-0.1172,-0.1197,-0.1213,-0.1364,-0.1416,-0.1435,-0.1213,-0.1213,-0.1214,-0.1214,-0.1215,-0.1127,-0.113,-0.1164,-0.1182,-0.123,-0.1266,-0.1309,-0.1311,-0.1384,-0.1299,-0.1376,-0.1363,-0.1469,-0.1224,-0.1222,-0.1221,-0.122,-0.1219,-0.1219,-0.112,-0.1134,-0.1165,-0.1222,-0.1283,-0.1317,-0.1396,-0.1421,-0.1473,-0.1534,-0.1621,-0.162,-0.1467,-0.1602,-0.1603,-0.1603,-0.1604,-0.1604,-0.1605,-0.1099,-0.1139,-0.1176,-0.1241,-0.1268,-0.1331,-0.1444,-0.1553,-0.1716,-0.1732,-0.1734,-0.1495,-0.1482,-0.1488,-0.1615,-0.1613,-0.1612,-0.1611,-0.161,-0.1064,-0.1092,-0.1131,-0.1165,-0.1248,-0.1301,-0.1457,-0.176,-0.1911,-0.2031,-0.1877,-0.1867,-0.1843,-0.1822,-0.1835,-0.2045,-0.2045,-0.2045,-0.2045,-0.1025,-0.1048,-0.1084,-0.1119,-0.119,-0.1276,-0.1494,-0.1672,-0.188,-0.1841,-0.1848,-0.1746,-0.1737,-0.1696,-0.1678,-0.1683,-0.1853,-0.1851,-0.185,-0.0989,-0.1007,-0.1014,-0.1078,-0.1146,-0.1272,-0.1432,-0.1509,-0.1586,-0.1821,-0.1591,-0.2075,-0.1944,-0.1922,-0.1866,-0.1836,-0.1846,0,0]},{"header":{"parameterUnit":"m.s-1","parameterCategory":2,"la1":30.2992,"la2":30.254,"lo1":-89.0895,"lo2":-89.0443,"dy":0.0025,"dx":0.0025,"nx":19,"ny":19,"refTime":"2026-04-22T09:00:00:Z","depth":"2","parameterNumber":3,"parameterNumberName":"V-component_of_CURRENTS"},"data":[0,0,0,-0.0263,-0.0264,-0.0268,-0.0268,-0.0225,-0.0225,0,0,0,0,0,0,0,0,0,0,0,-0.0267,-0.0268,-0.0263,-0.0264,-0.0268,-0.0268,-0.0225,-0.0225,0,0,0,0,0,0,0,0,0,0,0,-0.0267,-0.0268,-0.0268,-0.0264,-0.0269,-0.0268,-0.0225,-0.0232,0,0,0,0,0,0,0,0,0,0,-0.0232,-0.0236,-0.0268,-0.0268,-0.0264,-0.0269,-0.0268,-0.0232,-0.0231,-0.0212,0,-0.0227,0,-0.0226,-0.0222,-0.0221,0,0,0,-0.0254,-0.0237,-0.025,-0.0268,-0.0264,-0.0269,-0.0263,-0.0232,-0.0231,-0.021,-0.0226,-0.0225,-0.0225,-0.0221,-0.0221,-0.0198,-0.0198,0,0,-0.0253,-0.0251,-0.0251,-0.025,-0.0283,-0.0263,-0.0264,-0.0232,-0.0229,-0.0226,-0.0224,-0.0224,-0.0221,-0.0221,-0.0197,-0.0198,0,0,0,-0.026,-0.0251,-0.0266,-0.0252,-0.0257,-0.0264,-0.0264,-0.023,-0.0239,-0.0224,-0.0224,-0.0221,-0.022,-0.0197,-0.0198,-0.0256,0,0,0,-0.0259,-0.0255,-0.0266,-0.0262,-0.0259,-0.0247,-0.0263,-0.0242,-0.0238,-0.0224,-0.0221,-0.022,-0.0197,-0.0197,-0.0254,-0.0281,0,0,0,-0.0264,-0.0255,-0.0264,-0.0262,-0.027,-0.0248,-0.0255,-0.0241,-0.0238,-0.0221,-0.022,-0.0197,-0.0197,-0.0252,-0.0278,-0.0301,0,0,0,-0.0248,-0.0287,-0.0264,-0.0302,-0.027,-0.0298,-0.0255,-0.0264,-0.0257,-0.0221,-0.0197,-0.0197,-0.0252,-0.0276,-0.0299,-0.0276,-0.0282,0,0,-0.0294,-0.0292,-0.0316,-0.0297,-0.0341,-0.0295,-0.0312,-0.0283,-0.0248,-0.0202,-0.0202,-0.0255,-0.0278,-0.0301,-0.0287,-0.0294,0,0,0,-0.0329,-0.0353,-0.036,-0.0378,-0.0377,-0.0361,-0.033,-0.0301,-0.0268,-0.0246,-0.0242,-0.0255,-0.0268,-0.0249,-0.0254,-0.0198,-0.0198,-0.0198,-0.0198,-0.0373,-0.0387,-0.0433,-0.0447,-0.0448,-0.0407,-0.0385,-0.0335,-0.0302,-0.0292,-0.0293,-0.0338,-0.0318,-0.0322,-0.0281,-0.0281,-0.0282,-0.0282,-0.0282,-0.0458,-0.0493,-0.0494,-0.0546,-0.0514,-0.0511,-0.0438,-0.0401,-0.0361,-0.0325,-0.0335,-0.03,-0.0331,-0.0286,-0.0285,-0.0285,-0.0284,-0.0284,-0.0284,-0.0494,-0.0517,-0.055,-0.0609,-0.0613,-0.057,-0.0575,-0.0499,-0.0424,-0.0423,-0.0396,-0.0395,-0.038,-0.0436,-0.0437,-0.0437,-0.0437,-0.0437,-0.0437,-0.0517,-0.0556,-0.0623,-0.067,-0.0695,-0.0705,-0.0657,-0.0639,-0.0548,-0.0455,-0.0455,-0.039,-0.0385,-0.0387,-0.0441,-0.044,-0.044,-0.044,-0.0439,-0.058,-0.0594,-0.0695,-0.0743,-0.0821,-0.0887,-0.0836,-0.0788,-0.072,-0.0674,-0.0461,-0.0459,-0.0437,-0.0431,-0.0433,-0.0496,-0.0496,-0.0496,-0.0496,-0.0609,-0.0629,-0.0772,-0.0867,-0.095,-0.0978,-0.1037,-0.0815,-0.0587,-0.0337,-0.0343,-0.0291,-0.0293,-0.0259,-0.0257,-0.0254,-0.0269,-0.0269,-0.0268,-0.0653,-0.0692,-0.0805,-0.0915,-0.102,-0.1101,-0.1123,-0.0795,-0.0287,-0.0253,-0.0242,-0.0492,-0.0433,-0.043,-0.0387,-0.038,-0.0379,0,0]}],[{"header":{"parameterUnit":"m.s-1","parameterCategory":2,"la1":30.2992,"la2":30.254,"lo1":-89.0895,"lo2":-89.0443,"dy":0.0025,"dx":0.0025,"nx":19,"ny":19,"refTime":"2026-04-22T09:00:00:Z","depth":"4","parameterNumber":2,"parameterNumberName":"U-component_of_CURRENTS"},"data":[0,0,0,-0.0705,-0.0708,-0.084,-0.0841,-0.0854,-0.0854,0,0,0,0,0,0,0,0,0,0,0,-0.0653,-0.0655,-0.0705,-0.0709,-0.084,-0.0841,-0.0854,-0.0854,0,0,0,0,0,0,0,0,0,0,0,-0.0653,-0.0654,-0.0656,-0.0709,-0.084,-0.0841,-0.0854,-0.079,0,0,0,0,0,0,0,0,0,0,-0.0679,-0.065,-0.0654,-0.0656,-0.071,-0.084,-0.0841,-0.0788,-0.0793,-0.0754,0,-0.0789,0,-0.0828,-0.0852,-0.0852,0,0,0,-0.0694,-0.0646,-0.0695,-0.0656,-0.0711,-0.084,-0.0777,-0.0792,-0.0798,-0.0761,-0.079,-0.0792,-0.0828,-0.0852,-0.0852,-0.0851,-0.0851,0,0,-0.0687,-0.0658,-0.0691,-0.0699,-0.0762,-0.0773,-0.0781,-0.0797,-0.0798,-0.079,-0.0793,-0.0828,-0.0852,-0.0852,-0.0851,-0.0851,0,0,0,-0.0676,-0.0652,-0.0704,-0.0697,-0.0738,-0.0777,-0.0786,-0.0797,-0.0819,-0.0794,-0.0829,-0.0852,-0.0852,-0.0851,-0.0851,-0.0909,0,0,0,-0.067,-0.0648,-0.0701,-0.0682,-0.0739,-0.0789,-0.0785,-0.0818,-0.0822,-0.0829,-0.0852,-0.0852,-0.0851,-0.0851,-0.0907,-0.097,0,0,0,-0.0645,-0.0644,-0.0669,-0.0681,-0.0748,-0.079,-0.0813,-0.082,-0.0843,-0.0852,-0.0852,-0.0851,-0.0851,-0.0905,-0.0965,-0.1074,0,0,0,-0.0597,-0.0647,-0.0668,-0.0728,-0.0747,-0.0818,-0.0814,-0.0855,-0.0867,-0.0852,-0.0851,-0.0851,-0.0905,-0.0963,-0.107,-0.0837,0,0,0,-0.0635,-0.065,-0.0687,-0.071,-0.0783,-0.0798,-0.0848,-0.0862,-0.0853,-0.0831,-0.0833,-0.0908,-0.0965,-0.1073,-0.0856,0,0,0,0,-0.0683,-0.0709,-0.0734,-0.0784,-0.083,-0.0866,-0.0879,-0.0885,-0.0901,-0.0868,-0.0898,-0.0933,-0.1,-0.0849,-0.0853,-0.0853,-0.0853,-0.0853,-0.0853,-0.0667,-0.0715,-0.0765,-0.082,-0.0857,-0.0903,-0.0934,-0.0939,-0.0914,-0.0932,-0.0971,-0.1084,-0.092,-0.094,-0.094,-0.094,-0.0941,-0.0941,-0.0941,-0.0704,-0.073,-0.0779,-0.0845,-0.0881,-0.0913,-0.0973,-0.0986,-0.1074,-0.1013,-0.1075,-0.0906,-0.0946,-0.0945,-0.0945,-0.0944,-0.0943,-0.0943,-0.0943,-0.0673,-0.0693,-0.0744,-0.0814,-0.0872,-0.0926,-0.1019,-0.1093,-0.1145,-0.1214,-0.1104,-0.1159,-0.1169,-0.1269,-0.1269,-0.127,-0.1271,-0.1271,-0.1272,-0.0611,-0.0668,-0.07,-0.0783,-0.0809,-0.0899,-0.1074,-0.1126,-0.1226,-0.1182,-0.1275,-0.1196,-0.1186,-0.119,-0.1283,-0.1281,-0.128,-0.1279,-0.1278,-0.0576,-0.0601,-0.0638,-0.0667,-0.0752,-0.0815,-0.1006,-0.1102,-0.12,-0.1184,-0.1162,-0.1164,-0.1146,-0.1138,-0.1139,-0.1222,-0.1219,-0.1217,0,-0.0528,-0.0551,-0.0584,-0.061,-0.0655,-0.0767,-0.0838,-0.0936,-0.1042,-0.1033,-0.1186,-0.1161,-0.1161,-0.1133,-0.1122,-0.1119,0,0,0,-0.0493,-0.0508,-0.0508,-0.0559,-0.06,-0.0707,-0.0857,-0.0872,-0.1036,-0.0983,-0.1153,-0.1169,-0.1099,-0.1317,-0.1297,-0.1284,-0.1291,0,0]},{"header":{"parameterUnit":"m.s-1","parameterCategory":2,"la1":30.2992,"la2":30.254,"lo1":-89.0895,"lo2":-89.0443,"dy":0.0025,"dx":0.0025,"nx":19,"ny":19,"refTime":"2026-04-22T09:00:00:Z","depth":"4","parameterNumber":3,"parameterNumberName":"V-component_of_CURRENTS"},"data":[0,0,0,0.0303,0.0305,0.0443,0.0444,0.0573,0.0573,0,0,0,0,0,0,0,0,0,0,0,0.0253,0.0254,0.0302,0.0306,0.0443,0.0444,0.0572,0.0573,0,0,0,0,0,0,0,0,0,0,0,0.0252,0.0253,0.0254,0.0306,0.0443,0.0444,0.0572,0.0482,0,0,0,0,0,0,0,0,0,0,0.0355,0.0309,0.0253,0.0254,0.0307,0.0443,0.0444,0.0478,0.0488,0.0494,0,0.0513,0,0.0543,0.058,0.0581,0,0,0,0.0314,0.0301,0.0341,0.0254,0.0308,0.0442,0.0383,0.0484,0.0494,0.0506,0.0515,0.052,0.0545,0.0581,0.0581,0.0672,0.0672,0,0,0.0306,0.0277,0.0334,0.0348,0.034,0.0379,0.0387,0.0491,0.0497,0.0516,0.0524,0.0547,0.0582,0.0582,0.0672,0.0672,0,0,0,0.0279,0.0271,0.031,0.0342,0.0369,0.0382,0.0392,0.0493,0.0506,0.0525,0.0549,0.0582,0.0583,0.0671,0.0672,0.0633,0,0,0,0.0275,0.0255,0.0306,0.029,0.0367,0.0438,0.0392,0.0499,0.0512,0.0548,0.0582,0.0584,0.0671,0.0671,0.0633,0.0618,0,0,0,0.0247,0.0252,0.0268,0.0288,0.0345,0.0437,0.0458,0.0503,0.0526,0.0581,0.0585,0.0671,0.0671,0.0634,0.0619,0.0675,0,0,0,0.0214,0.023,0.0267,0.0297,0.0344,0.0417,0.0458,0.0521,0.0567,0.0583,0.0671,0.0672,0.0634,0.062,0.0675,0.0516,0,0,0,0.0213,0.0229,0.0248,0.0285,0.0334,0.0398,0.0449,0.0526,0.0577,0.0634,0.0638,0.0633,0.0619,0.0675,0.055,0,0,0,0,0.0235,0.0246,0.0271,0.0309,0.0369,0.0409,0.049,0.0537,0.0612,0.0606,0.0655,0.0648,0.0685,0.0592,0.0674,0.0674,0.0674,0.0674,0.0674,0.0167,0.0216,0.024,0.0299,0.0336,0.0425,0.0476,0.0552,0.0599,0.0632,0.0632,0.0669,0.0568,0.0651,0.0651,0.0651,0.0651,0.0651,0.0651,0.015,0.0166,0.0206,0.0249,0.0291,0.0332,0.0442,0.05,0.0619,0.0631,0.0669,0.0575,0.0647,0.0648,0.0648,0.0649,0.0649,0.0649,0.0649,0.0107,0.012,0.0151,0.0188,0.0204,0.027,0.0319,0.0439,0.0574,0.062,0.0581,0.0671,0.0659,0.0661,0.0662,0.0662,0.0662,0.0662,0.0662,0.0048,0.0081,0.0094,0.0127,0.0124,0.0143,0.0274,0.0348,0.05,0.0534,0.0632,0.0674,0.0674,0.0662,0.0665,0.0664,0.0664,0.0664,0.0664,0.0029,0.0033,0.005,0.0052,0.0049,0.0049,0.0154,0.0271,0.0383,0.0442,0.0509,0.0516,0.053,0.0535,0.0518,0.0479,0.0476,0.0474,0,-0.0005,0.0006,0.0018,0.0006,-0.0019,-0.0002,0.0051,0.0144,0.0315,0.0311,0.0424,0.0498,0.0503,0.0515,0.0516,0.0494,0,0,0,-0.0017,-0.0013,-0.0012,-0.0013,-0.0049,-0.0014,0.0061,0.0099,0.027,0.0283,0.0424,0.0437,0.0485,0.0673,0.0713,0.0712,0.0697,0,0]}]]